Meteo18 Weather Cam more information Meteo18 Weather Cam


Thunder radar more information blitzortung!


Rain radar more information rain snow radar



Select another period ( hide this area )

Units Period Custom range Directly to
Metric English Both
Daily Weekly Monthly Yearly
use both date-selectors for a custom range
previous Day
With this date

WeatherUnderground graphs for this period ( click here )


Daily Summary for Monday 20 August 2018
Time Temp. ( °C ) Dew pt. ( °C ) Wind ( km/h ) from Gust ( km/h ) Pressure ( hPa ) Humid.( % ) Rainrate ( cm )
High21,3 17,1 11,1 NW ( 105/257 ) 11,3 1022,2 87 -
Average19,4 14,4 2,3 NW #32/113 5,0 1021,6 73 -
Low17,2 13,1 -   0,0 1021,2 61 -
Daily Tabular details for Monday 20 August 2018
Time Temp. ( °C ) Dew pt. ( °C ) Wind ( km/h ) from Gust ( km/h ) Pressure ( hPa ) Humid.( % ) Rainrate ( cm )
00:03 20,1 13,3   Calm   1022,2 65 -
00:09 20,3 13,3 3,2 WNW 6,4 1021,9 64 -
00:13 20,3 13,3 4,7 WNW 4,8 1021,9 64 -
00:19 20,6 13,6 1,4 WNW 4,8 1021,9 64 -
00:23 20,8 13,3 3,2 WNW 6,4 1021,9 62 -
00:29 21,1 13,5   Calm 8,0 1021,9 62 -
00:33 21,2 13,4   Calm 4,8 1021,9 61 -
00:39 21,2 13,4   Calm 1,6 1021,9 61 -
00:43 21,1 13,3 1,4 NNW 3,2 1021,9 61 -
00:49 21,1 13,5 1,4 NW 3,2 1021,9 62 -
00:53 21,0 13,4 1,4 North 4,8 1021,9 62 -
00:59 20,9 13,3 3,2 NW 4,8 1021,9 62 -
01:03 21,0 13,4 1,4 NW 4,8 1021,9 62 -
01:09 21,0 13,4 3,2 WNW 4,8 1021,9 62 -
01:13 20,9 13,3   Calm 4,8 1021,9 62 -
01:19 20,7 13,4   Calm 3,2 1021,9 63 -
01:23 20,7 13,4 1,4 WNW 4,8 1021,9 63 -
01:29 20,7 13,4 1,4 NNW 3,2 1021,9 63 -
01:33 20,7 13,4 6,4 NW 6,4 1021,9 63 -
01:39 20,7 13,4 3,2 NW 8,0 1021,9 63 -
01:43 20,8 13,5 6,4 NNW 6,4 1021,9 63 -
01:49 20,8 13,5 3,2 NNW 6,4 1021,9 63 -
01:53 20,7 13,4 3,2 NW 6,4 1021,6 63 -
01:59 20,7 13,4 3,2 NW 6,4 1021,6 63 -
02:03 20,7 13,4 4,7 NW 4,8 1021,6 63 -
02:07 20,6 13,3 3,2 NNW 6,4 1021,6 63 -
02:13 20,5 13,5 1,4 NNW 8,0 1021,6 64 -
02:17 20,5 13,5 1,4 NNW 8,0 1021,6 64 -
02:23 20,4 13,4 3,2 NW 6,4 1021,6 64 -
02:27 20,4 13,4 3,2 NW 6,4 1021,6 64 -
02:33 20,3 13,3 6,4 NW 6,4 1021,6 64 -
02:38 20,3 13,3 4,7 NW 6,4 1021,6 64 -
02:44 20,2 13,2 3,2 NW 8,0 1021,6 64 -
02:48 20,2 13,2 3,2 NNW 8,0 1021,6 64 -
02:54 20,1 13,3 3,2 NNW 6,4 1021,6 65 -
02:58 20,1 13,3 4,7 NW 6,4 1021,6 65 -
03:04 20,0 13,2 3,2 West 11,3 1021,6 65 -
03:08 20,1 13,3 4,7 North 9,7 1021,6 65 -
03:14 20,1 13,3 6,4 NW 6,4 1021,6 65 -
03:18 20,2 13,4 4,7 NNE 8,0 1021,6 65 -
03:24 19,9 13,1 3,2 NNW 8,0 1021,6 65 -
03:28 19,8 13,3 3,2 North 8,0 1021,6 66 -
03:34 19,6 13,3 3,2 NW 6,4 1021,6 67 -
03:38 19,6 13,3 3,2 NW 4,8 1021,6 67 -
03:44 19,5 13,2 3,2 NNW 6,4 1021,6 67 -
03:48 19,4 13,3 1,4 NNW 6,4 1021,6 68 -
03:54 19,4 13,6 3,2 NNE 8,0 1021,6 69 -
03:58 19,4 13,6 3,2 NNE 8,0 1021,6 69 -
04:04 19,4 14,0 1,4 NW 8,0 1021,6 71 -
04:08 19,4 14,0 4,7 NNW 6,4 1021,6 71 -
04:14 19,3 14,1 4,7 WNW 4,8 1021,6 72 -
04:18 19,2 13,8 1,4 NW 6,4 1021,6 71 -
04:24 18,9 13,7   Calm 6,4 1021,6 72 -
04:28 18,8 14,1 4,7 NW 6,4 1021,6 74 -
04:34 18,8 14,3   Calm 6,4 1021,6 75 -
04:38 18,7 14,2 3,2 NW 3,2 1021,6 75 -
04:44 18,5 14,0   Calm 1,6 1021,6 75 -
04:48 18,4 14,1 1,4 NNW 1,6 1021,6 76 -
04:54 18,4 14,3 3,2 NNW 3,2 1021,6 77 -
04:58 18,4 14,5 1,4 WNW 3,2 1021,2 78 -
05:04 18,4 14,5   Calm 6,4 1021,2 78 -
05:08 18,4 14,5 1,4 NW 4,8 1021,2 78 -
05:14 18,3 14,6   Calm 4,8 1021,2 79 -
05:18 18,2 14,5 3,2 NW 3,2 1021,2 79 -
05:24 18,1 14,6 3,2 NW 3,2 1021,2 80 -
05:28 18,1 14,6 3,2 NNW 4,8 1021,2 80 -
05:34 18,0 14,7 6,4 NNW 6,4 1021,2 81 -
05:38 18,1 14,8 3,2 NNW 6,4 1021,2 81 -
05:44 18,1 14,8 1,4 WNW 3,2 1021,2 81 -
05:48 18,1 14,8 3,2 NNW 3,2 1021,2 81 -
05:54 18,2 15,1   Calm 3,2 1021,2 82 -
05:58 18,1 14,8   Calm   1021,2 81 -
06:04 18,1 15,0 1,4 NW 3,2 1021,2 82 -
06:08 17,9 14,8 1,4 WNW 3,2 1021,2 82 -
06:14 17,8 14,9 1,4 NW 4,8 1021,2 83 -
06:18 17,7 14,8 1,4 NW 6,4 1021,2 83 -
06:24 17,8 15,1 3,2 NW 6,4 1021,2 84 -
06:28 17,9 15,0 3,2 NNW 4,8 1021,2 83 -
06:34 17,8 14,9   Calm 4,8 1021,2 83 -
06:38 17,8 14,9 1,4 North 1,6 1021,2 83 -
06:42 17,7 14,8   Calm 1,6 1021,2 83 -
06:49 17,6 14,7 1,4 North 3,2 1021,2 83 -
06:53 17,5 14,8   Calm 1,6 1021,2 84 -
06:59 17,4 14,7   Calm   1021,2 84 -
07:03 17,3 14,6   Calm   1021,2 84 -
07:09 17,2 14,7 1,4 NW 1,6 1021,2 85 -
07:13 17,2 15,0   Calm 3,2 1021,2 87 -
07:19 17,5 15,1 1,4 NNW 4,8 1021,2 86 -
07:23 17,7 15,3 1,4 NW 3,2 1021,6 86 -
07:29 17,9 15,3   Calm 1,6 1021,6 85 -
07:33 18,0 15,3   Calm 1,6 1021,6 84 -
07:39 18,2 15,5   Calm 1,6 1021,6 84 -
07:43 18,2 15,5   Calm   1021,6 84 -
07:49 18,4 15,5   Calm 3,2 1021,6 83 -
07:53 18,6 15,7   Calm 3,2 1021,6 83 -
07:59 18,8 15,7   Calm 1,6 1021,6 82 -
08:03 19,1 16,0   Calm 3,2 1021,9 82 -
08:09 19,3 16,0 1,4 NNW 3,2 1021,9 81 -
08:13 19,5 16,2   Calm 4,8 1021,9 81 -
08:19 19,7 16,2 3,2 NNE 4,8 1021,9 80 -
08:23 19,8 16,2 1,4 NNE 4,8 1021,9 80 -
08:29 19,9 16,3 3,2 NNW 6,4 1021,9 80 -
08:33 20,1 16,5 6,4 NNW 8,0 1022,2 80 -
08:39 20,2 16,6 1,4 North 4,8 1022,2 80 -
08:43 20,3 16,5 3,2 NNW 9,7 1022,2 79 -
08:49 20,5 16,7 1,4 NW 3,2 1022,2 79 -
08:53 20,6 16,6 3,2 NNW 8,0 1022,2 78 -
08:59 20,7 16,7 1,4 North 4,8 1022,2 78 -
09:03 20,7 16,7   Calm 3,2 1022,2 78 -
09:09 20,9 16,9   Calm 1,6 1022,2 78 -
09:13 21,2 17,0 9,7 NW 9,7 1022,2 77 -
09:19 21,2 17,0 11,1 NNE 11,3 1022,2 77 -
09:23 21,3 17,1 1,4 NNW 4,8 1022,2 77 -
Daily Summary for Monday 20 August 2018
Time Temp. ( °C ) Dew pt. ( °C ) Wind ( km/h ) from Gust ( km/h ) Pressure ( hPa ) Humid.( % ) Rainrate ( cm )
High21,3 17,1 11,1 NW ( 105/257 ) 11,3 1022,2 87 -
Average19,4 14,4 2,3 NW #32/113 5,0 1021,6 73 -
Low17,2 13,1 -   0,0 1021,2 61 -
Daily Tabular details for Monday 20 August 2018
Time Temp. ( °C ) Dew pt. ( °C ) Wind ( km/h ) from Gust ( km/h ) Pressure ( hPa ) Humid.( % ) Rainrate ( cm )
00:03 20,1 13,3   Calm   1022,2 65 -
00:09 20,3 13,3 3,2 WNW 6,4 1021,9 64 -
00:13 20,3 13,3 4,7 WNW 4,8 1021,9 64 -
00:19 20,6 13,6 1,4 WNW 4,8 1021,9 64 -
00:23 20,8 13,3 3,2 WNW 6,4 1021,9 62 -
00:29 21,1 13,5   Calm 8,0 1021,9 62 -
00:33 21,2 13,4   Calm 4,8 1021,9 61 -
00:39 21,2 13,4   Calm 1,6 1021,9 61 -
00:43 21,1 13,3 1,4 NNW 3,2 1021,9 61 -
00:49 21,1 13,5 1,4 NW 3,2 1021,9 62 -
00:53 21,0 13,4 1,4 North 4,8 1021,9 62 -
00:59 20,9 13,3 3,2 NW 4,8 1021,9 62 -
01:03 21,0 13,4 1,4 NW 4,8 1021,9 62 -
01:09 21,0 13,4 3,2 WNW 4,8 1021,9 62 -
01:13 20,9 13,3   Calm 4,8 1021,9 62 -
01:19 20,7 13,4   Calm 3,2 1021,9 63 -
01:23 20,7 13,4 1,4 WNW 4,8 1021,9 63 -
01:29 20,7 13,4 1,4 NNW 3,2 1021,9 63 -
01:33 20,7 13,4 6,4 NW 6,4 1021,9 63 -
01:39 20,7 13,4 3,2 NW 8,0 1021,9 63 -
01:43 20,8 13,5 6,4 NNW 6,4 1021,9 63 -
01:49 20,8 13,5 3,2 NNW 6,4 1021,9 63 -
01:53 20,7 13,4 3,2 NW 6,4 1021,6 63 -
01:59 20,7 13,4 3,2 NW 6,4 1021,6 63 -
02:03 20,7 13,4 4,7 NW 4,8 1021,6 63 -
02:07 20,6 13,3 3,2 NNW 6,4 1021,6 63 -
02:13 20,5 13,5 1,4 NNW 8,0 1021,6 64 -
02:17 20,5 13,5 1,4 NNW 8,0 1021,6 64 -
02:23 20,4 13,4 3,2 NW 6,4 1021,6 64 -
02:27 20,4 13,4 3,2 NW 6,4 1021,6 64 -
02:33 20,3 13,3 6,4 NW 6,4 1021,6 64 -
02:38 20,3 13,3 4,7 NW 6,4 1021,6 64 -
02:44 20,2 13,2 3,2 NW 8,0 1021,6 64 -
02:48 20,2 13,2 3,2 NNW 8,0 1021,6 64 -
02:54 20,1 13,3 3,2 NNW 6,4 1021,6 65 -
02:58 20,1 13,3 4,7 NW 6,4 1021,6 65 -
03:04 20,0 13,2 3,2 West 11,3 1021,6 65 -
03:08 20,1 13,3 4,7 North 9,7 1021,6 65 -
03:14 20,1 13,3 6,4 NW 6,4 1021,6 65 -
03:18 20,2 13,4 4,7 NNE 8,0 1021,6 65 -
03:24 19,9 13,1 3,2 NNW 8,0 1021,6 65 -
03:28 19,8 13,3 3,2 North 8,0 1021,6 66 -
03:34 19,6 13,3 3,2 NW 6,4 1021,6 67 -
03:38 19,6 13,3 3,2 NW 4,8 1021,6 67 -
03:44 19,5 13,2 3,2 NNW 6,4 1021,6 67 -
03:48 19,4 13,3 1,4 NNW 6,4 1021,6 68 -
03:54 19,4 13,6 3,2 NNE 8,0 1021,6 69 -
03:58 19,4 13,6 3,2 NNE 8,0 1021,6 69 -
04:04 19,4 14,0 1,4 NW 8,0 1021,6 71 -
04:08 19,4 14,0 4,7 NNW 6,4 1021,6 71 -
04:14 19,3 14,1 4,7 WNW 4,8 1021,6 72 -
04:18 19,2 13,8 1,4 NW 6,4 1021,6 71 -
04:24 18,9 13,7   Calm 6,4 1021,6 72 -
04:28 18,8 14,1 4,7 NW 6,4 1021,6 74 -
04:34 18,8 14,3   Calm 6,4 1021,6 75 -
04:38 18,7 14,2 3,2 NW 3,2 1021,6 75 -
04:44 18,5 14,0   Calm 1,6 1021,6 75 -
04:48 18,4 14,1 1,4 NNW 1,6 1021,6 76 -
04:54 18,4 14,3 3,2 NNW 3,2 1021,6 77 -
04:58 18,4 14,5 1,4 WNW 3,2 1021,2 78 -
05:04 18,4 14,5   Calm 6,4 1021,2 78 -
05:08 18,4 14,5 1,4 NW 4,8 1021,2 78 -
05:14 18,3 14,6   Calm 4,8 1021,2 79 -
05:18 18,2 14,5 3,2 NW 3,2 1021,2 79 -
05:24 18,1 14,6 3,2 NW 3,2 1021,2 80 -
05:28 18,1 14,6 3,2 NNW 4,8 1021,2 80 -
05:34 18,0 14,7 6,4 NNW 6,4 1021,2 81 -
05:38 18,1 14,8 3,2 NNW 6,4 1021,2 81 -
05:44 18,1 14,8 1,4 WNW 3,2 1021,2 81 -
05:48 18,1 14,8 3,2 NNW 3,2 1021,2 81 -
05:54 18,2 15,1   Calm 3,2 1021,2 82 -
05:58 18,1 14,8   Calm   1021,2 81 -
06:04 18,1 15,0 1,4 NW 3,2 1021,2 82 -
06:08 17,9 14,8 1,4 WNW 3,2 1021,2 82 -
06:14 17,8 14,9 1,4 NW 4,8 1021,2 83 -
06:18 17,7 14,8 1,4 NW 6,4 1021,2 83 -
06:24 17,8 15,1 3,2 NW 6,4 1021,2 84 -
06:28 17,9 15,0 3,2 NNW 4,8 1021,2 83 -
06:34 17,8 14,9   Calm 4,8 1021,2 83 -
06:38 17,8 14,9 1,4 North 1,6 1021,2 83 -
06:42 17,7 14,8   Calm 1,6 1021,2 83 -
06:49 17,6 14,7 1,4 North 3,2 1021,2 83 -
06:53 17,5 14,8   Calm 1,6 1021,2 84 -
06:59 17,4 14,7   Calm   1021,2 84 -
07:03 17,3 14,6   Calm   1021,2 84 -
07:09 17,2 14,7 1,4 NW 1,6 1021,2 85 -
07:13 17,2 15,0   Calm 3,2 1021,2 87 -
07:19 17,5 15,1 1,4 NNW 4,8 1021,2 86 -
07:23 17,7 15,3 1,4 NW 3,2 1021,6 86 -
07:29 17,9 15,3   Calm 1,6 1021,6 85 -
07:33 18,0 15,3   Calm 1,6 1021,6 84 -
07:39 18,2 15,5   Calm 1,6 1021,6 84 -
07:43 18,2 15,5   Calm   1021,6 84 -
07:49 18,4 15,5   Calm 3,2 1021,6 83 -
07:53 18,6 15,7   Calm 3,2 1021,6 83 -
07:59 18,8 15,7   Calm 1,6 1021,6 82 -
08:03 19,1 16,0   Calm 3,2 1021,9 82 -
08:09 19,3 16,0 1,4 NNW 3,2 1021,9 81 -
08:13 19,5 16,2   Calm 4,8 1021,9 81 -
08:19 19,7 16,2 3,2 NNE 4,8 1021,9 80 -
08:23 19,8 16,2 1,4 NNE 4,8 1021,9 80 -
08:29 19,9 16,3 3,2 NNW 6,4 1021,9 80 -
08:33 20,1 16,5 6,4 NNW 8,0 1022,2 80 -
08:39 20,2 16,6 1,4 North 4,8 1022,2 80 -
08:43 20,3 16,5 3,2 NNW 9,7 1022,2 79 -
08:49 20,5 16,7 1,4 NW 3,2 1022,2 79 -
08:53 20,6 16,6 3,2 NNW 8,0 1022,2 78 -
08:59 20,7 16,7 1,4 North 4,8 1022,2 78 -
09:03 20,7 16,7   Calm 3,2 1022,2 78 -
09:09 20,9 16,9   Calm 1,6 1022,2 78 -
09:13 21,2 17,0 9,7 NW 9,7 1022,2 77 -
09:19 21,2 17,0 11,1 NNE 11,3 1022,2 77 -
09:23 21,3 17,1 1,4 NNW 4,8 1022,2 77 -

Download your copy of this data-set  here

Our weather-data as stored at Weather Underground. Script developed by Jim McMurry. Adapted for the template by Leuven-Template.eu

You find our weather info also at:

Weather Underground

Equipment we use:

Weather-station
Davis Vue

Weather-program
Meteobridge

Weather-server
Raspberry PI 2 B+

Provider
1 and 1

Davis Vue

Meteobridge

Raspberry PI 2 B+

1 and 1